Tracking 18852 objects as of 23-Nov-2017
HD Live streaming from Space Station
objects crossing your sky now

FENGYUN 1C DEB

Track FENGYUN 1C DEB now!
10-day predictions


NORAD ID: 30079
Int'l Code: 1999-025QG
Perigee: 845.4 km
Apogee: 964.8 km
Inclination: 99.3 °
Period: 102.9 minutes
Semi major axis: 7276 km
RCS: 0.052 m2 (small)
Launch date: May 10, 1999
Source: People's Republic of China (PRC)
Launch site: Taiyaun Space Center, China (TSC)

Note: This is SATELLITE DEBRIS
aabbcc
Your satellite tracking list
Your tracking list is empty




NASA's NSSDC Master Catalog

Two Line Element Set (TLE):
1 30079U 99025QG  17326.54345253 -.00000133  00000-0 -59270-4 0  9990
2 30079  99.3060 318.8291 0082058  88.1227  27.8520 13.98788191553980
Source of the keplerian elements: AFSPC